SCP
0 0 0 -0 -0 -0 0 0 0 0 0 0 0 0 0 0 0 -0 -0 0 0 -0 -1 -1 -1 -0 -0 -0 -0 -0 -0 -0
0 0 0 0 0 0 0 0 -0 0 0 0 0 0 1 0 0 1 0 0 0 -0 -1 -1 -1 -0 -0 -0 -0 -0 -0 -0
0 0 0 0 0 -0 0 0 0 0 0 0 1 1 1 0 0 1 1 1 0 -0 -0 -0 -0 -0 -0 -0 -0 -0 -0 -0
0 0 0 0 0 -0 0 0 0 0 0 0 1 1 1 1 1 1 1 1 1 0 0 -0 -0 -0 -0 -0 -0 -0 -0 -0
0 0 0 0 0 0 0 0 0 0 0 0 1 1 1 1 1 1 1 1 1 1 1 0 0 0 -0 -0 -0 -0 -0 -0
0 0 0 0 0 0 0 0 0 0 0 0 0 1 1 1 2 2 2 2 2 2 1 1 0 0 0 0 0 0 0 0
0 0 0 0 0 0 0 0 0 0 0 0 1 0 1 1 1 2 2 2 2 1 1 1 1 0 0 0 0 0 0 0
0 0 0 0 0 0 0 0 0 0 0 1 1 0 1 1 1 1 1 1 1 1 1 1 1 1 0 0 0 0 0 0
0 0 0 0 0 0 0 0 0 0 0 1 0 1 2 1 1 0 0 1 0 1 1 1 1 1 1 1 1 0 0 0
0 0 0 0 -0 0 0 0 0 0 0 0 0 0 1 1 1 0 0 0 0 0 0 0 1 1 1 1 1 1 0 0
0 0 0 0 0 0 0 0 0 0 0 0 0 0 0 1 1 1 0 0 0 0 0 1 1 1 1 1 1 0 0 0
0 0 0 0 0 -0 0 0 0 0 0 0 0 0 0 0 0 1 0 0 0 0 0 0 1 1 1 1 1 1 1 0
0 0 0 0 -0 -0 0 0 0 0 0 0 0 0 0 0 0 1 0 0 0 0 0 0 0 1 1 1 1 1 1 1
0 0 0 0 0 0 0 0 0 0 0 0 0 0 0 0 0 0 1 1 0 0 0 0 0 1 1 0 1 1 1 1
0 0 0 0 0 0 0 0 0 0 0 0 0 0 0 0 0 0 0 0 0 0 0 0 0 0 0 0 0 0 0 0
0 0 0 0 0 0 0 0 0 0 0 0 0 0 0 0 0 0 0 0 1 1 1 0 0 0 0 0 0 0 0 0
-0 0 0 0 0 0 0 0 0 0 0 0 0 0 0 0 0 0 0 0 1 0 1 1 1 1 2 1 0 0 0 0
0 0 0 0 0 0 0 0 0 0 0 0 0 0 0 0 0 0 0 0 1 0 2 2 2 3 3 3 3 2 2 1
0 0 0 0 0 0 0 -0 0 0 0 0 0 0 0 0 0 0 0 0 0 1 2 3 3 3 2 2 1 2 2 1
0 0 0 -0 0 0 -0 0 0 0 0 0 0 0 0 0 0 0 0 0 0 1 2 2 2 2 1 2 1 1 0 0
Wind_Speed_500mb
7 8 14 11 9 8 13 36 39 21 21 10 9 11 31 52 61 70 70 71 71 67 62 57 53 53 54 51 48 49 52 51
5 22 14 12 9 16 25 52 17 24 15 4 9 11 42 62 64 75 73 72 70 67 63 59 55 54 53 51 50 52 53 51
8 16 10 14 13 16 17 21 21 46 9 1 8 6 28 55 69 73 75 73 70 65 62 59 55 53 51 51 51 50 49 47
18 19 20 10 9 25 21 50 38 16 13 3 11 9 28 60 74 69 71 73 70 65 60 57 54 51 49 49 49 48 46 44
9 16 40 8 13 8 17 14 21 13 5 7 8 22 45 56 63 67 69 71 71 65 60 56 55 52 49 46 45 44 43 41
14 19 18 7 15 30 22 37 33 22 11 9 29 39 40 46 49 59 65 66 66 63 60 59 57 53 50 47 44 43 42 42
11 15 7 23 6 29 17 30 5 13 28 9 33 47 46 46 50 59 62 63 63 64 63 60 57 55 53 50 46 44 43 42
8 5 8 17 24 28 25 41 1 4 15 27 45 49 48 49 55 63 64 65 65 65 65 64 63 61 59 57 55 53 51 50
23 29 43 42 38 28 24 28 34 25 42 58 64 57 54 52 49 51 53 61 63 63 61 63 66 67 67 67 64 61 57 55
27 41 39 36 27 41 46 53 63 50 49 61 57 58 57 60 65 58 55 54 58 63 66 65 65 66 68 70 69 69 64 59
49 64 69 57 39 39 51 71 46 23 54 44 57 49 61 60 67 61 60 56 53 61 66 66 66 67 68 72 71 67 63 61
49 50 52 21 37 16 58 68 49 33 49 63 50 49 64 70 74 67 68 60 52 58 57 66 63 64 67 68 69 66 63 64
23 35 27 31 23 19 66 59 36 38 28 61 54 59 83 77 64 60 60 55 60 61 61 60 64 62 64 65 64 65 65 63
25 17 31 23 33 31 57 38 47 35 33 38 48 59 59 60 51 42 51 51 50 63 65 62 63 62 59 58 57 58 63 60
19 21 15 18 22 37 66 51 43 39 42 42 41 46 51 49 48 43 42 44 51 66 72 70 64 64 56 42 42 44 46 48
8 10 7 14 10 12 39 43 48 52 53 42 57 60 58 47 41 36 40 44 52 58 68 74 66 63 53 46 45 46 48 47
11 20 10 15 12 20 28 23 32 59 59 51 47 54 55 52 53 41 30 45 50 53 66 69 70 65 53 48 45 46 42 43
17 12 6 15 14 16 12 16 49 60 56 50 48 40 56 51 49 40 40 40 46 52 58 56 59 51 50 46 49 43 39 43
14 14 7 4 13 11 10 11 21 43 41 42 52 47 57 54 47 43 50 52 51 58 61 58 55 48 42 33 35 47 52 53
15 6 7 5 8 11 11 15 3 5 19 43 46 50 62 60 53 50 53 58 60 59 57 53 49 45 43 45 50 52 50 49
Wind_Direction_500mb
158 186 207 227 237 273 284 305 304 297 278 314 299 238 168 166 163 170 171 170 168 168 171 169 167 169 171 171 170 166 164 163
172 232 251 214 245 344 329 315 54 314 283 293 303 280 169 168 167 172 171 170 171 170 173 171 169 167 170 170 169 167 167 168
242 247 243 249 286 317 288 284 300 310 240 237 29 167 175 178 170 174 172 170 173 174 176 174 173 170 170 172 171 171 172 173
231 246 246 255 282 288 271 284 298 282 125 349 315 221 180 173 174 176 174 171 174 176 179 178 177 177 175 177 176 176 177 178
217 243 262 256 257 232 279 315 293 168 86 155 198 184 168 171 176 178 176 175 177 177 180 183 183 184 183 184 183 183 184 185
214 216 270 193 224 247 259 289 245 169 168 195 183 171 169 172 179 182 181 180 181 181 184 188 188 190 190 191 191 191 191 192
216 186 224 266 311 260 257 323 260 109 151 164 176 169 168 171 182 184 185 186 188 189 191 193 194 193 196 198 199 198 198 199
186 224 279 287 296 300 333 322 102 74 129 159 176 181 180 178 180 186 191 192 195 197 198 199 199 199 199 202 203 204 204 203
268 264 278 282 283 292 293 293 274 212 154 165 170 185 190 190 192 190 191 197 201 206 209 208 206 205 204 205 206 208 209 209
257 258 259 264 286 271 266 261 292 268 188 158 173 193 203 202 196 192 195 199 202 208 212 212 213 213 213 211 210 212 213 214
246 247 250 257 259 260 283 275 289 244 195 196 192 209 212 217 212 201 203 206 206 209 212 215 218 218 219 221 219 220 220 221
257 262 255 254 249 230 267 273 263 148 181 186 187 213 212 219 218 215 213 211 213 214 214 218 221 226 225 227 227 226 226 228
238 246 246 251 282 212 259 266 228 192 173 191 183 190 202 205 218 232 218 224 223 222 219 219 220 228 230 229 232 232 233 235
250 212 251 167 259 256 242 243 229 203 204 197 185 187 192 199 203 207 221 225 231 229 225 220 222 227 231 231 235 238 240 242
297 197 213 162 236 246 250 237 234 223 202 213 228 208 198 200 200 208 219 227 229 232 229 219 223 228 230 231 238 241 247 250
276 336 195 229 239 266 230 216 232 225 239 217 214 224 229 223 218 224 226 224 223 228 232 223 228 227 230 234 239 244 252 259
273 271 258 236 237 241 249 227 247 243 246 240 233 229 216 219 230 237 228 214 215 216 225 225 226 227 227 243 249 251 259 271
274 273 161 301 299 274 260 230 216 229 237 243 243 250 220 214 226 231 227 221 202 206 217 224 225 234 237 255 255 259 269 270
212 321 268 302 309 331 312 257 242 234 239 237 252 237 212 213 222 226 220 213 203 196 200 213 219 226 230 228 241 248 256 264
262 128 253 62 274 304 332 327 20 252 259 240 236 226 214 217 220 226 216 205 194 188 191 197 204 211 223 233 240 245 253 262
Wind_Speed_850mb
7 8 14 11 9 8 13 36 39 21 21 10 9 11 31 52 61 70 70 71 71 67 62 57 53 53 54 51 48 49 52 51
5 22 14 12 9 16 25 52 17 24 15 4 9 11 42 62 64 75 73 72 70 67 63 59 55 54 53 51 50 52 53 51
8 16 10 14 13 16 17 21 21 46 9 1 8 6 28 55 69 73 75 73 70 65 62 59 55 53 51 51 51 50 49 47
18 19 20 10 9 25 21 50 38 16 13 3 11 9 28 60 74 69 71 73 70 65 60 57 54 51 49 49 49 48 46 44
9 16 40 8 13 8 17 14 21 13 5 7 8 22 45 56 63 67 69 71 71 65 60 56 55 52 49 46 45 44 43 41
14 19 18 7 15 30 22 37 33 22 11 9 29 39 40 46 49 59 65 66 66 63 60 59 57 53 50 47 44 43 42 42
11 15 7 23 6 29 17 30 5 13 28 9 33 47 46 46 50 59 62 63 63 64 63 60 57 55 53 50 46 44 43 42
8 5 8 17 24 28 25 41 1 4 15 27 45 49 48 49 55 63 64 65 65 65 65 64 63 61 59 57 55 53 51 50
23 29 43 42 38 28 24 28 34 25 42 58 64 57 54 52 49 51 53 61 63 63 61 63 66 67 67 67 64 61 57 55
27 41 39 36 27 41 46 53 63 50 49 61 57 58 57 60 65 58 55 54 58 63 66 65 65 66 68 70 69 69 64 59
49 64 69 57 39 39 51 71 46 23 54 44 57 49 61 60 67 61 60 56 53 61 66 66 66 67 68 72 71 67 63 61
49 50 52 21 37 16 58 68 49 33 49 63 50 49 64 70 74 67 68 60 52 58 57 66 63 64 67 68 69 66 63 64
23 35 27 31 23 19 66 59 36 38 28 61 54 59 83 77 64 60 60 55 60 61 61 60 64 62 64 65 64 65 65 63
25 17 31 23 33 31 57 38 47 35 33 38 48 59 59 60 51 42 51 51 50 63 65 62 63 62 59 58 57 58 63 60
19 21 15 18 22 37 66 51 43 39 42 42 41 46 51 49 48 43 42 44 51 66 72 70 64 64 56 42 42 44 46 48
8 10 7 14 10 12 39 43 48 52 53 42 57 60 58 47 41 36 40 44 52 58 68 74 66 63 53 46 45 46 48 47
11 20 10 15 12 20 28 23 32 59 59 51 47 54 55 52 53 41 30 45 50 53 66 69 70 65 53 48 45 46 42 43
17 12 6 15 14 16 12 16 49 60 56 50 48 40 56 51 49 40 40 40 46 52 58 56 59 51 50 46 49 43 39 43
14 14 7 4 13 11 10 11 21 43 41 42 52 47 57 54 47 43 50 52 51 58 61 58 55 48 42 33 35 47 52 53
15 6 7 5 8 11 11 15 3 5 19 43 46 50 62 60 53 50 53 58 60 59 57 53 49 45 43 45 50 52 50 49
Wind_Direction_850mb
158 186 207 227 237 273 284 305 304 297 278 314 299 238 168 166 163 170 171 170 168 168 171 169 167 169 171 171 170 166 164 163
172 232 251 214 245 344 329 315 54 314 283 293 303 280 169 168 167 172 171 170 171 170 173 171 169 167 170 170 169 167 167 168
242 247 243 249 286 317 288 284 300 310 240 237 29 167 175 178 170 174 172 170 173 174 176 174 173 170 170 172 171 171 172 173
231 246 246 255 282 288 271 284 298 282 125 349 315 221 180 173 174 176 174 171 174 176 179 178 177 177 175 177 176 176 177 178
217 243 262 256 257 232 279 315 293 168 86 155 198 184 168 171 176 178 176 175 177 177 180 183 183 184 183 184 183 183 184 185
214 216 270 193 224 247 259 289 245 169 168 195 183 171 169 172 179 182 181 180 181 181 184 188 188 190 190 191 191 191 191 192
216 186 224 266 311 260 257 323 260 109 151 164 176 169 168 171 182 184 185 186 188 189 191 193 194 193 196 198 199 198 198 199
186 224 279 287 296 300 333 322 102 74 129 159 176 181 180 178 180 186 191 192 195 197 198 199 199 199 199 202 203 204 204 203
268 264 278 282 283 292 293 293 274 212 154 165 170 185 190 190 192 190 191 197 201 206 209 208 206 205 204 205 206 208 209 209
257 258 259 264 286 271 266 261 292 268 188 158 173 193 203 202 196 192 195 199 202 208 212 212 213 213 213 211 210 212 213 214
246 247 250 257 259 260 283 275 289 244 195 196 192 209 212 217 212 201 203 206 206 209 212 215 218 218 219 221 219 220 220 221
257 262 255 254 249 230 267 273 263 148 181 186 187 213 212 219 218 215 213 211 213 214 214 218 221 226 225 227 227 226 226 228
238 246 246 251 282 212 259 266 228 192 173 191 183 190 202 205 218 232 218 224 223 222 219 219 220 228 230 229 232 232 233 235
250 212 251 167 259 256 242 243 229 203 204 197 185 187 192 199 203 207 221 225 231 229 225 220 222 227 231 231 235 238 240 242
297 197 213 162 236 246 250 237 234 223 202 213 228 208 198 200 200 208 219 227 229 232 229 219 223 228 230 231 238 241 247 250
276 336 195 229 239 266 230 216 232 225 239 217 214 224 229 223 218 224 226 224 223 228 232 223 228 227 230 234 239 244 252 259
273 271 258 236 237 241 249 227 247 243 246 240 233 229 216 219 230 237 228 214 215 216 225 225 226 227 227 243 249 251 259 271
274 273 161 301 299 274 260 230 216 229 237 243 243 250 220 214 226 231 227 221 202 206 217 224 225 234 237 255 255 259 269 270
212 321 268 302 309 331 312 257 242 234 239 237 252 237 212 213 222 226 220 213 203 196 200 213 219 226 230 228 241 248 256 264
262 128 253 62 274 304 332 327 20 252 259 240 236 226 214 217 220 226 216 205 194 188 191 197 204 211 223 233 240 245 253 262